NIMBUS 2 DEB, 40646

Orbit data source: Space-Track

NIMBUS 2 DEB, 40646 is space debris in SSO originally from a launch on Sun, 15 May 1966 UTC launched from the Air Force Western Test Range (AFWTR). Debris objects in space refer to the collection of defunct objects orbiting the Earth. Examples of debris include non-operational satellites, rocket bodies, and fragments generated from explosions, collisions, or faulty payload assembly.

Loading next visibility...
Identifier
40646, 1966-040BK
Orbit
SSO
Country
Flag of USUS
Related business
Manufacturer
Unknown
Mission
Spacecraft
Bus & Motor
Unknown
Mass
Unknown
Launch date (UTC)
1966-05-15 (60 years ago)
Launch vehicle
Unknown
Launch site
Air Force Western Test Range (AFWTR)
Object type
Payload
Rocket body
Debris
Shape & HBR
Unknown shape, 0.1 m
Radar Cross Section
Small (<0.1 m²)

Expand to show TLE details & history
Last TLE update: 2 days ago

TLE from 2 days ago
0 NIMBUS 2 DEB
1 40646U 66040BK  25337.14466825  .00002352  00000-0  38357-2 0  9992
2 40646 100.3671 218.3517 0049792 245.8751 113.7168 13.48457648517549
Epoch: 2025-12-03T03:28Z
TLE epoch observation values (Epoch: 2025-12-03T03:28:19.336Z)
Latitude
-0.00004°
Longitude
94.05146°
Altitude
1,095.788 km
Speed
7.297 km/s
True Right ascension
14h 33m 24s
True Declination
0° 00' 00"
Sunlit
Object was in daylight at epoch
Visualization orbit readout
Latitude
Unknown
Longitude
Unknown
Altitude
Unknown
Speed
Unknown
Apparent Right ascension
Unknown
Apparent Declination
Unknown
Sunlit
N/A
Visualization observer readout
Local Sidereal Time
18:12:59
Azimuth
Unknown
Elevation
Unknown
Doppler factor
Unknown
Orbital elements
Apogee altitude
1,112.389 km
Perigee altitude
1,038.165 km
Semi-major axis
7,453.414 km
Eccentricity
0.00498
Inclination
100.3671°
RAAN
218.3517°
Arg. of periapsis
245.8751°
True anomaly
114.23787°
Mean anomaly
113.7168°
Eccentric anomaly
113.97747°
Mean motion
3.37295 °/min
Orbital period
106.73 mins
BSTAR
0.0038357
Loading maneuver chart data...
Computing Atmospheric mass density...
Loading historical data...
Loading historical data...
Loading historical data...
Loading historical data...
Loading historical data...
Loading historical data...
Loading historical data...

Documentation

Showing up to 5 results
|